Tracking 23583 objects as of 26-Jul-2021
HD Live streaming from Space Station
objects crossing your sky now

LUCKY-7

Track LUCKY-7 now!
10-day predictions
LUCKY-7 is classified as:


NORAD ID: 44406
Int'l Code: 2019-038W
Perigee: 517.3 km
Apogee: 550.8 km
Inclination: 97.6 °
Period: 95.2 minutes
Semi major axis: 6905 km
RCS: Unknown
Launch date: July 5, 2019
Source: United States (US)
Launch site: VOSTOCHNY COSMODROME (VOSTO)

Uplink (MHz):
Downlink (MHz): 437.525
Beacon (MHz):
Mode: 4k8/9k6 GFSK
Call sign:
Status: Active

aabbcc
Your satellite tracking list
Your tracking list is empty




NASA's NSSDC Master Catalog

Two Line Element Set (TLE):
1 44406U 19038W   21206.87579386  .00001151  00000-0  68508-4 0  9992
2 44406  97.5921 170.8288 0024258 172.6909 187.4681 15.13034006113555
Source of the keplerian elements: AFSPC